Findern, United Kingdom
Current Conditions -  °F | °C
As of 10:50 PM on Wednesday 22 Oct 2014 (Local Time) from EGNX Reporting Station
Scattered Clouds Scattered Clouds  
Wind Chill: 52°   Ceiling: Unl
Heat Index: 52°   Visibility: 6mi
Dew Point: 48°   Wind: 17mph
Humidity: 88%   Direction: 220°SW
Pressure: 30.12"   Gusts: NA
Location:  52.87°N, 1.54°W
Report Text: EGNX 222150Z 22015KT 9999 SCT027 11/09 Q1020
Loading
Personal Weather Stations






























Interactive Weather Map New forecast layout! Learn more

10-Day Weather Forecast

Advertisements
Track Severe Weather on mobile